Location: M�zien
(44.2187°N, 5.9986°E)
Time: 03:19:47
(UTC+00:00)

Daily predictions for brighter satellites

Satellite Brightness Start Highest point End
(mag) Time Altitude Azimuth Time Altitude Azimuth Time Altitude Azimuth
FALCON 9 R/B 4.3 02:59:04 31° SE 02:59:04 31° SE 03:08:34 10° E
USA 234 3.8 03:38:51 10° ENE 03:45:10 50° SE 03:46:10 46° SSE
Cosmos 2263 Rocket 3.1 03:57:50 42° NE 03:57:50 42° NE 04:01:34 10° NNE
Cosmos 1452 Rocket 4.1 04:10:27 52° NE 04:10:27 52° NE 04:14:33 10° NNE
Okean O Rocket 4.5 04:10:15 10° NE 04:13:06 17° E 04:15:57 10° SE
Meteor 1-20 Rocket 4.4 04:07:22 10° S 04:13:11 72° E 04:19:00 10° NNE
CZ-4C R/B 4.1 04:16:36 28° SSW 04:16:36 28° SSW 04:20:59 10° S
Cosmos 2026 Rocket 4.2 04:15:30 14° N 04:20:50 68° E 04:27:05 10° SSE
SKYMED 2 4.0 04:30:53 10° SSE 04:35:09 61° ENE 04:36:06 48° NNE
ATLAS CENTAUR R/B 3.7 04:39:24 15° NNE 04:40:44 17° NE 04:43:24 10° ENE
SJ-12 4.4 04:40:29 10° NNE 04:44:34 58° E 04:48:35 10° S
Cosmos 1634 Rocket 3.8 04:39:32 10° SSW 04:45:44 77° W 04:51:56 10° N
BREEZE-M DEB (TANK) 3.9 04:47:25 21° ESE 04:47:25 21° ESE 04:48:25 10° ESE
Cosmos 1943 3.5 04:47:41 45° WSW 04:47:41 45° WSW 04:52:32 10° S
Timation 1 Rocket 4.3 04:49:39 47° WSW 04:51:01 57° WNW 04:56:55 10° NNE
BREEZE-M DEB 4.3 04:50:02 40° WSW 04:51:03 44° SW 04:54:53 10° SE
Meteor 1-18 Rocket 4.0 04:49:55 33° NNW 04:52:29 70° W 04:58:01 10° S
PSLV R/B 3.7 04:50:52 10° N 04:55:01 80° WNW 04:59:07 10° SSW
Cosmos 1627 Rocket 4.5 04:52:09 16° NNW 04:57:16 62° W 05:03:29 10° S
USA 116 4.5 04:55:26 10° SSE 05:00:02 71° ENE 05:05:09 10° N
Okean 3 3.7 04:57:57 19° N 05:00:52 69° E 05:05:03 10° SSE
Geosat 3.9 04:57:46 10° SSE 05:02:48 87° ENE 05:05:42 26° NNW
Orbus 7S? 3.2 05:03:14 51° E 05:03:14 51° E 05:05:21 10° NE
Cosmos 1110 Rocket 4.0 05:01:00 10° SSW 05:06:10 79° ESE 05:11:22 10° NNE
Cosmos 1092 Rocket 4.4 05:09:36 33° WNW 05:10:55 36° W 05:16:25 10° SSW
Cosmos 1655 Rocket 4.0 05:06:17 10° N 05:12:32 81° E 05:18:46 10° S
Cosmos 332 Rocket 4.0 05:09:48 10° SSW 05:14:42 76° ESE 05:19:36 10° NNE
PAYLOAD B 4.2 05:09:21 10° NNE 05:14:54 89° ESE 05:20:28 10° SSW
Meteor 2-13 Rocket 4.4 05:11:00 10° N 05:17:12 89° W 05:23:21 10° S
Cosmos 1500 3.5 05:14:45 10° S 05:18:33 67° E 05:22:21 10° NNE
Cosmos 1346 Rocket 3.0 05:15:15 10° SSW 05:18:57 43° WNW 05:22:42 10° N
BREEZE-M DEB (TANK) 3.5 05:17:38 26° W 05:21:04 52° NNW 05:24:11 10° ENE
Cosmos 1515 3.6 05:19:47 27° NNW 05:21:46 66° W 05:25:32 10° S
COSMO-SKYMED 1 3.0 05:19:07 10° S 05:23:13 40° W 05:24:39 31° NW
MOS 1-B 4.3 05:20:21 10° N 05:26:03 61° WNW 05:31:42 10° SSW
Cosmos 44 3.4 05:24:43 25° WSW 05:27:03 45° NW 05:31:23 10° NNE
Meteor 1-5 Rocket 4.4 05:21:23 10° S 05:27:20 84° E 05:33:09 10° NNE
USA 234 3.3 05:21:52 10° NE 05:28:14 58° NNW 05:33:33 15° WSW
Helios 1A Rocket 2.8 05:25:25 10° NNE 05:29:28 88° WNW 05:33:29 10° SSW
GEOS 3 Rocket 3.7 05:25:18 10° SSE 05:30:17 55° WSW 05:33:30 22° NW
Meteor 2-4 Rocket 3.6 05:27:37 10° NNW 05:33:03 65° W 05:38:20 10° S
Cosmos 371 Rocket 3.3 05:30:01 10° SW 05:34:46 57° WNW 05:39:35 10° NNE
Cosmos 1733 Rocket 2.9 05:31:18 10° SSW 05:35:36 69° W 05:39:55 10° N
ALOS 2.4 05:32:19 10° N 05:36:50 48° WNW 05:41:19 10° SW
Cosmos 2221 Rocket 4.1 05:36:22 19° NW 05:38:53 35° W 05:42:54 10° SSW
Cosmos 2263 Rocket 3.3 05:39:36 21° WNW 05:40:29 21° NW 05:44:42 10° N
Okean O Rocket 1.8 05:45:28 10° N 05:49:44 49° WNW 05:53:59 10° SW
Cosmos 2266 Rocket 3.9 05:44:31 10° N 05:50:44 77° W 05:56:47 10° S
FENGYUN 3A 4.0 05:50:46 10° N 05:55:46 40° WNW 06:00:44 10° SW
IRIDIUM 106 4.4 05:51:42 10° N 05:56:57 87° E 06:02:10 10° S
Cosmos 1833 Rocket 4.2 05:54:07 10° N 05:59:11 32° NE 06:04:13 10° ESE
Cosmos 1302 Rocket 4.0 05:55:54 10° SSW 06:01:11 73° WNW 06:06:30 10° NNE
Cosmos 1666 2.6 05:58:41 10° S 06:02:30 90° E 06:06:18 10° N
Cosmos 1674 Rocket 3.8 06:01:49 10° NNW 06:05:57 45° W 06:10:04 10° SSW
Cosmos 1975 Rocket 4.1 06:03:42 10° N 06:08:02 49° ENE 06:12:22 10° SSE
Cosmos 968 Rocket 4.1 06:03:57 10° NNW 06:09:03 58° ENE 06:14:04 10° SE
Cosmos 1782 Rocket 4.2 06:06:19 10° S 06:10:41 60° E 06:15:02 10° NNE
NOAA 6 4.5 06:06:13 10° N 06:10:55 38° WNW 06:15:38 10° SW
Cosmos 1844 Rocket 2.9 06:05:55 10° SW 06:11:17 47° WNW 06:16:40 10° NNE
Okean-O 3.4 06:10:03 10° NNE 06:14:26 57° E 06:18:48 10° S
Cosmos 1844 3.9 06:12:28 10° SW 06:18:07 53° WNW 06:23:47 10° NNE
COSMOS 2406 3.3 06:13:03 10° NNW 06:18:48 82° ENE 06:24:28 10° SSE
Cosmos 44 Rocket 3.2 06:14:25 10° SW 06:19:16 69° NW 06:24:04 10° NNE
CZ-4B R/B 3.8 06:14:47 10° N 06:19:53 37° WNW 06:25:01 10° SW
NOSS 3-2 (A) 3.5 06:14:26 10° SW 06:20:09 60° NW 06:26:41 10° NNE
ATLAS CENTAUR R/B 1.3 06:16:04 10° NW 06:20:15 75° WSW 06:24:05 10° SSE
Radarsat Rocket 4.3 06:14:56 10° N 06:21:08 60° WNW 06:28:06 10° SW
Cosmos 405 4.4 06:19:50 10° NW 06:22:31 21° W 06:25:12 10° SW
Cosmos 1378 Rocket 4.0 06:18:41 10° NNW 06:22:52 42° W 06:27:02 10° SSW
CZ-4 R/B 3.2 06:20:38 10° NNE 06:24:15 35° E 06:27:55 10° SSE
IRS-1C Rocket 4.1 06:21:13 10° N 06:26:27 67° WNW 06:31:39 10° SSW
Sich 1 Rocket 4.0 06:24:03 10° S 06:28:32 71° E 06:33:00 10° NNE
EP 3 3.6 06:27:17 10° SW 06:29:25 83° SE 06:31:28 10° NE
Cosmos 304 Rocket 4.3 06:26:27 10° SW 06:30:54 38° WNW 06:35:22 10° N
USA 238 DEB 3.9 06:25:41 10° WSW 06:32:10 50° NW 06:38:54 10° NNE
USA 238 3.9 06:25:47 10° WSW 06:32:15 50° NW 06:39:00 10° NNE
CZ-2C R/B 4.3 06:28:45 10° SE 06:33:21 32° ENE 06:37:55 10° N
CZ-2C R/B 3.9 06:29:20 10° S 06:34:02 69° WSW 06:38:50 10° NNW
CENTAUR R/B 2.6 06:28:08 10° SW 06:34:04 88° SE 06:41:06 10° NE
H-2A R/B 3.3 06:31:36 10° N 06:35:05 36° WNW 06:38:34 10° SW
